FW5754 Weather Reports


Display with metric or nautical units.
time (UTC)temp
F
wind
direction
speed
MPH
gust
MPH
rain 1hr
in
rain 24hr
in
rain mn
in
humidity
%
barometer
mb
20260831112032 69 352 1.0 3.0 0.00 0.02 0.00 84 1019.7
20260831111608 69 352 1.0 3.0 0.00 0.02 0.00 83 1019.6
20260831111032 69 0 0.0 3.0 0.00 0.02 0.00 83 1019.5
20260831110531 69 0 0.0 3.0 0.00 0.02 0.00 83 1019.6
20260831110050 69 352 1.0 2.0 0.00 0.02 0.00 83 1019.6
20260831105531 68 0 1.0 3.0 0.00 0.02 0.00 83 1019.6
20260831105032 69 352 1.0 3.0 0.00 0.02 0.00 83 1019.7
20260831104549 68 352 1.0 3.0 0.00 0.02 0.00 83 1019.6
20260831104032 68 352 2.0 3.0 0.00 0.02 0.00 83 1019.5
20260831103531 69 352 1.0 4.0 0.00 0.02 0.00 83 1019.5
20260831103104 69 352 2.0 8.0 0.00 0.02 0.00 84 1019.5
20260831102531 69 352 3.0 8.0 0.00 0.02 0.00 84 1019.4
20260831102030 69 352 5.0 8.0 0.00 0.02 0.00 84 1019.4
20260831101557 69 352 4.0 6.0 0.00 0.02 0.00 84 1019.4
20260831101032 69 352 3.0 5.0 0.00 0.02 0.00 83 1019.3
20260831100530 69 352 2.0 5.0 0.00 0.02 0.00 83 1019.5
20260831100049 69 352 1.0 5.0 0.00 0.02 0.00 82 1019.5
20260831095530 69 352 3.0 9.0 0.00 0.02 0.00 83 1019.5
20260831095033 69 352 4.0 10.0 0.00 0.02 0.00 82 1019.4
20260831094548 69 352 5.0 10.0 0.00 0.02 0.00 82 1019.4
20260831094033 69 352 6.0 10.0 0.00 0.02 0.00 82 1019.3
20260831093533 69 352 4.0 9.0 0.00 0.02 0.00 82 1019.3
20260831093047 69 352 6.0 9.0 0.00 0.02 0.00 83 1019.3
20260831092531 69 352 5.0 10.0 0.00 0.02 0.00 82 1019.1
20260831092031 69 352 4.0 11.0 0.00 0.02 0.00 82 1019.0
20260831091600 69 352 5.0 12.0 0.00 0.02 0.00 82 1019.2
20260831091033 69 352 7.0 12.0 0.00 0.02 0.00 82 1019.1
20260831090531 69 352 7.0 11.0 0.00 0.02 0.00 82 1019.2
20260831090047 69 352 8.0 12.0 0.00 0.02 0.00 82 1019.2
20260831085532 69 352 9.0 13.0 0.00 0.02 0.00 81 1019.2
20260831085029 70 352 8.0 13.0 0.00 0.02 0.00 82 1019.1
20260831084549 70 343 9.0 12.0 0.00 0.02 0.00 83 1019.0
20260831084032 70 352 8.0 12.0 0.00 0.02 0.00 82 1019.2
20260831083532 70 352 8.0 12.0 0.00 0.02 0.00 81 1019.1
20260831083100 70 352 7.0 13.0 0.00 0.02 0.00 82 1019.2
20260831082531 70 352 9.0 13.0 0.00 0.02 0.00 81 1019.2
20260831082030 70 348 8.0 11.0 0.00 0.02 0.00 81 1019.2
20260831081555 70 349 6.0 13.0 0.00 0.02 0.00 82 1019.1
20260831081033 70 348 9.0 13.0 0.00 0.02 0.00 80 1019.1
20260831080531 70 352 9.0 13.0 0.00 0.02 0.00 80 1019.2
20260831080110 70 351 9.0 14.0 0.00 0.02 0.00 81 1019.3
20260831075530 70 346 9.0 15.0 0.00 0.02 0.00 82 1019.4
20260831075031 70 345 9.0 15.0 0.00 0.02 0.00 81 1019.4
20260831074551 71 336 10.0 14.0 0.00 0.02 0.00 80 1019.3
20260831074031 71 342 10.0 14.0 0.00 0.02 0.00 80 1019.3
20260831073532 71 346 9.0 16.0 0.00 0.02 0.00 80 1019.3
20260831073113 71 350 9.0 16.0 0.00 0.02 0.00 80 1019.2
20260831072531 71 346 11.0 16.0 0.00 0.02 0.00 79 1019.3
20260831072032 71 352 10.0 16.0 0.00 0.02 0.00 80 1019.2
20260831071554 71 350 12.0 16.0 0.00 0.02 0.00 79 1019.2
20260831071034 71 334 11.0 16.0 0.00 0.02 0.00 80 1019.3
20260831070534 72 330 12.0 16.0 0.00 0.02 0.00 80 1019.2
20260831070100 72 339 14.0 16.0 0.00 0.02 0.00 78 1019.1
20260831065531 72 330 13.0 16.0 0.00 0.02 0.00 78 1018.9
20260831065031 72 329 13.0 16.0 0.00 0.02 0.00 79 1019.0
20260831064552 72 323 11.0 15.0 0.00 0.02 0.00 78 1019.1
20260831064033 72 325 10.0 15.0 0.00 0.02 0.00 79 1019.1
20260831063531 72 334 9.0 10.0 0.00 0.02 0.00 82 1019.2
20260831063049 72 334 7.0 11.0 0.00 0.02 0.00 82 1019.1
20260831062532 72 335 9.0 12.0 0.00 0.02 0.00 81 1019.0
20260831062033 72 339 8.0 12.0 0.00 0.02 0.00 80 1019.1
20260831061547 72 337 9.0 13.0 0.00 0.02 0.00 83 1019.0
20260831061034 72 340 10.0 14.0 0.00 0.02 0.00 81 1018.9
20260831060531 72 348 10.0 14.0 0.00 0.02 0.00 81 1018.9
20260831060052 72 340 11.0 14.0 0.00 0.02 0.00 83 1018.9
20260831055531 72 338 12.0 15.0 0.00 0.02 0.00 83 1018.9
20260831055032 73 331 11.0 15.0 0.00 0.02 0.00 84 1018.8
20260831054553 73 329 12.0 15.0 0.00 0.02 0.00 85 1018.8
20260831054032 73 328 11.0 14.0 0.00 0.02 0.00 85 1018.8
20260831053530 73 313 9.0 11.0 0.00 0.02 0.00 86 1018.7
20260831053050 73 313 9.0 12.0 0.00 0.02 0.00 86 1018.7
20260831052531 73 315 9.0 13.0 0.00 0.02 0.00 86 1018.6
20260831052029 73 309 9.0 13.0 0.00 0.02 0.00 85 1018.6
20260831051547 73 309 9.0 13.0 0.00 0.02 0.00 84 1018.6
20260831051031 73 316 10.0 13.0 0.00 0.02 0.00 84 1018.6
20260831050531 73 313 11.0 16.0 0.00 0.02 0.00 84 1018.6
20260831050047 73 312 12.0 16.0 0.00 0.02 0.00 84 1018.6
20260831045535 73 316 12.0 17.0 0.00 0.02 0.00 83 1018.7
20260831045032 73 311 12.0 17.0 0.00 0.02 0.00 83 1018.7
20260831044558 73 319 12.0 17.0 0.00 0.02 0.00 84 1018.7
20260831044034 73 300 13.0 19.0 0.00 0.02 0.00 84 1018.6
20260831043534 74 305 14.0 19.0 0.00 0.02 0.00 83 1018.5
20260831043050 74 312 15.0 19.0 0.00 0.02 0.00 82 1018.4
20260831042533 74 300 14.0 19.0 0.00 0.02 0.00 83 1018.3
20260831042036 74 299 14.0 17.0 0.00 0.02 0.00 84 1018.3
20260831041554 74 291 13.0 18.0 0.00 0.02 0.00 84 1018.2
20260831041037 74 287 14.0 18.0 0.00 0.02 0.00 84 1018.3
20260831040531 74 281 14.0 17.0 0.00 0.02 0.00 83 1018.3
20260831040058 74 289 13.0 17.0 0.00 0.02 0.00 84 1018.4
20260831035535 74 264 11.0 16.0 0.00 0.02 0.02 83 1018.4
20260831035035 74 279 11.0 17.0 0.00 0.02 0.02 84 1018.3
20260831034551 74 275 12.0 16.0 0.00 0.02 0.02 84 1018.4
20260831034035 74 249 10.0 16.0 0.00 0.02 0.02 85 1018.5
20260831033532 74 266 10.0 15.0 0.00 0.02 0.02 85 1018.5
20260831033049 74 273 9.0 15.0 0.00 0.02 0.02 84 1018.6
20260831032534 74 272 10.0 15.0 0.01 0.02 0.02 84 1018.7
20260831032034 73 279 10.0 16.0 0.01 0.02 0.02 84 1018.7
20260831031544 73 265 9.0 16.0 0.01 0.02 0.02 85 1018.7
20260831031033 73 277 10.0 16.0 0.01 0.02 0.02 86 1018.8
20260831030534 73 281 11.0 16.0 0.01 0.02 0.02 85 1018.9
20260831030058 73 248 7.0 15.0 0.01 0.02 0.02 85 1019.0
20260831025537 74 261 8.0 14.0 0.01 0.02 0.02 87 1019.0
20260831025035 74 268 10.0 14.0 0.01 0.02 0.02 86 1019.1
20260831024547 73 273 6.0 16.0 0.01 0.02 0.02 85 1019.0
20260831024037 74 262 9.0 16.0 0.02 0.02 0.02 85 1019.0
20260831023534 73 266 9.0 14.0 0.02 0.02 0.02 85 1019.1
20260831023051 73 237 6.0 12.0 0.02 0.02 0.02 87 1019.0
20260831022538 73 223 4.0 12.0 0.01 0.01 0.01 87 1018.9
20260831022034 73 265 5.0 12.0 0.01 0.01 0.01 87 1018.8
20260831021551 73 224 6.0 11.0 0.01 0.01 0.01 88 1018.8
20260831021031 73 251 4.0 10.0 0.01 0.01 0.01 88 1018.9
20260831020534 73 243 4.0 11.0 0.01 0.01 0.01 88 1018.9
20260831020050 73 246 4.0 11.0 0.01 0.01 0.01 88 1018.9
20260831015532 73 194 3.0 10.0 0.01 0.01 0.01 88 1018.8
20260831015032 73 214 4.0 10.0 0.01 0.01 0.01 88 1018.7
20260831014547 73 204 2.0 6.0 0.01 0.01 0.01 87 1018.9
20260831014034 73 204 1.0 6.0 0.00 0.00 0.00 87 1018.7
20260831013534 73 204 2.0 7.0 0.00 0.00 0.00 86 1018.7
20260831013053 73 204 3.0 7.0 0.00 0.00 0.00 85 1018.7
20260831012534 73 204 3.0 8.0 0.00 0.00 0.00 84 1018.7
20260831012032 73 204 4.0 9.0 0.00 0.00 0.00 84 1018.7
20260831011551 73 204 3.0 9.0 0.00 0.00 0.00 84 1018.6
20260831011033 73 205 4.0 9.0 0.00 0.00 0.00 83 1018.7
20260831010533 73 205 3.0 10.0 0.00 0.00 0.00 83 1018.6
20260831010104 73 209 2.0 10.0 0.00 0.00 0.00 83 1018.5
20260831005532 74 209 3.0 10.0 0.00 0.00 0.00 83 1018.5
20260831005032 73 216 4.0 10.0 0.00 0.00 0.00 83 1018.5
20260831004552 73 195 3.0 8.0 0.00 0.00 0.00 83 1018.5
20260831004031 73 194 3.0 9.0 0.00 0.00 0.00 83 1018.6
20260831003532 73 194 3.0 11.0 0.00 0.00 0.00 82 1018.5
20260831003104 73 194 2.0 16.0 0.00 0.00 0.00 82 1018.4
20260831002533 73 189 4.0 12.0 0.00 0.00 0.00 82 1018.5
20260831002031 73 205 4.0 11.0 0.00 0.00 0.00 82 1018.4
20260831001558 73 202 3.0 11.0 0.00 0.00 0.00 82 1018.5
20260831001035 73 197 4.0 11.0 0.00 0.00 0.00 82 1018.4
20260831000534 73 206 5.0 11.0 0.00 0.00 0.00 82 1018.4
20260831000054 73 205 3.0 11.0 0.00 0.00 0.00 82 1018.3
20260830235534 73 207 3.0 11.0 0.00 0.00 0.00 81 1018.4
20260830235034 73 213 2.0 10.0 0.00 0.00 0.00 81 1018.3
20260830234600 73 209 3.0 10.0 0.00 0.00 0.00 81 1018.3
20260830234037 73 207 2.0 10.0 0.00 0.00 0.00 81 1018.2
20260830233534 73 211 3.0 8.0 0.00 0.00 0.00 80 1018.3
20260830233046 73 211 1.0 9.0 0.00 0.00 0.00 80 1018.2
20260830232534 73 212 4.0 9.0 0.00 0.00 0.00 80 1018.3
20260830232033 73 211 3.0 9.0 0.00 0.00 0.00 79 1018.3
20260830231548 74 208 2.0 10.0 0.00 0.00 0.00 79 1018.4
20260830231033 74 208 4.0 10.0 0.00 0.00 0.00 79 1018.4
20260830230535 74 209 2.0 9.0 0.00 0.00 0.00 78 1018.2
20260830230052 74 209 3.0 9.0 0.00 0.00 0.00 78 1018.2
20260830225531 74 209 3.0 9.0 0.00 0.00 0.00 77 1018.2
20260830225034 74 209 3.0 7.0 0.00 0.00 0.00 77 1018.2
20260830224548 74 208 2.0 8.0 0.00 0.00 0.00 77 1018.1
20260830224035 74 209 3.0 8.0 0.00 0.00 0.00 77 1018.3
20260830223535 74 207 2.0 10.0 0.00 0.00 0.00 77 1018.5
20260830223045 74 208 3.0 10.0 0.00 0.00 0.00 77 1018.5
20260830222535 74 208 2.0 9.0 0.00 0.00 0.00 77 1018.6
20260830222031 74 207 3.0 9.0 0.00 0.00 0.00 77 1018.5
20260830221555 74 207 1.0 8.0 0.00 0.00 0.00 77 1018.5
20260830221035 74 208 2.0 8.0 0.00 0.00 0.00 77 1018.6
20260830220533 75 209 2.0 9.0 0.00 0.00 0.00 76 1018.6
20260830220048 75 209 3.0 9.0 0.00 0.00 0.00 76 1018.6
20260830215537 75 208 3.0 10.0 0.00 0.00 0.00 76 1018.5
20260830215036 75 208 5.0 10.0 0.00 0.00 0.00 75 1018.6
20260830214557 75 208 2.0 6.0 0.00 0.00 0.00 76 1018.6
20260830214035 75 208 1.0 11.0 0.00 0.00 0.00 76 1018.6
20260830213535 75 208 4.0 11.0 0.00 0.00 0.00 75 1018.7
20260830213049 76 211 3.0 10.0 0.00 0.00 0.00 76 1018.7
20260830212536 76 211 3.0 11.0 0.00 0.00 0.00 75 1018.7
20260830212032 76 211 3.0 11.0 0.00 0.00 0.00 75 1018.8
20260830211549 76 214 3.0 9.0 0.00 0.00 0.00 75 1018.8
20260830211031 76 214 3.0 9.0 0.00 0.00 0.00 74 1018.7
20260830210534 76 214 2.0 9.0 0.00 0.00 0.00 74 1018.7
20260830210048 77 214 3.0 10.0 0.00 0.00 0.00 73 1018.8
20260830205534 77 215 2.0 10.0 0.00 0.00 0.00 73 1018.8
20260830205034 77 215 4.0 10.0 0.00 0.00 0.00 72 1018.7
20260830204544 77 217 2.0 7.0 0.00 0.00 0.00 71 1018.8
20260830204035 78 217 2.0 10.0 0.00 0.00 0.00 70 1018.7
20260830203535 78 217 3.0 10.0 0.00 0.00 0.00 70 1018.7
20260830203052 78 221 1.0 8.0 0.00 0.00 0.00 69 1018.8
20260830202531 78 221 3.0 8.0 0.00 0.00 0.00 68 1018.8
20260830202033 78 222 3.0 7.0 0.00 0.00 0.00 68 1018.7
20260830201551 78 215 3.0 11.0 0.00 0.00 0.00 67 1018.7
20260830201032 78 205 4.0 11.0 0.00 0.00 0.00 68 1018.9
20260830200534 78 261 5.0 12.0 0.00 0.00 0.00 69 1018.9
20260830200048 79 263 7.0 12.0 0.00 0.00 0.00 65 1018.9
20260830195533 79 263 5.0 12.0 0.00 0.00 0.00 65 1018.9
20260830195030 80 265 6.0 13.0 0.00 0.00 0.00 65 1019.0
20260830194605 80 265 6.0 13.0 0.00 0.00 0.00 62 1019.0
20260830194034 80 253 7.0 13.0 0.00 0.00 0.00 62 1019.3
20260830193535 80 261 6.0 12.0 0.00 0.00 0.00 61 1019.1
20260830193049 80 256 6.0 14.0 0.00 0.00 0.00 61 1019.3
20260830192530 80 267 8.0 14.0 0.00 0.00 0.00 61 1019.3
20260830192034 81 270 8.0 13.0 0.00 0.00 0.00 61 1019.4
20260830191546 81 262 6.0 13.0 0.00 0.00 0.00 59 1019.5
20260830191033 81 254 5.0 13.0 0.00 0.00 0.00 60 1019.4
20260830190533 81 246 4.0 10.0 0.00 0.00 0.00 58 1019.6
20260830190046 81 259 4.0 10.0 0.00 0.00 0.00 57 1019.6
20260830185532 81 263 4.0 8.0 0.00 0.00 0.00 58 1019.5
20260830185032 81 265 2.0 8.0 0.00 0.00 0.00 60 1019.6
20260830184553 80 265 2.0 9.0 0.00 0.00 0.00 61 1019.6
20260830184031 79 0 5.0 9.0 0.00 0.00 0.00 63 1019.7
20260830183533 78 279 5.0 9.0 0.00 0.00 0.00 61 1019.7
20260830183049 77 280 6.0 9.0 0.00 0.00 0.00 65 1019.7
20260830182534 76 280 5.0 7.0 0.00 0.00 0.00 74 1019.9
20260830182034 76 280 5.0 7.0 0.00 0.00 0.00 72 1020.0
20260830181547 75 280 4.0 8.0 0.00 0.00 0.00 73 1020.1
20260830181032 76 280 5.0 9.0 0.00 0.00 0.00 71 1020.2
20260830180534 77 280 5.0 9.0 0.00 0.00 0.00 69 1020.1
20260830180055 76 280 4.0 7.0 0.00 0.00 0.00 69 1020.2
20260830175535 76 280 3.0 7.0 0.00 0.00 0.00 70 1020.2
20260830175034 75 280 3.0 7.0 0.00 0.00 0.00 73 1020.2
20260830174609 75 280 3.0 7.0 0.00 0.00 0.00 74 1020.3
20260830174030 75 280 4.0 7.0 0.00 0.00 0.00 72 1020.3
20260830173531 75 280 4.0 7.0 0.00 0.00 0.00 73 1020.3
20260830173046 76 280 4.0 6.0 0.00 0.00 0.00 71 1020.3
20260830172534 76 280 3.0 6.0 0.00 0.00 0.00 74 1020.4
20260830172034 75 280 2.0 7.0 0.00 0.00 0.00 73 1020.5
20260830171547 75 280 3.0 7.0 0.00 0.00 0.00 74 1020.7
20260830171032 75 280 3.0 7.0 0.00 0.00 0.00 74 1020.9
20260830170533 74 280 5.0 8.0 0.00 0.00 0.00 74 1020.8
20260830170053 74 280 6.0 9.0 0.00 0.00 0.00 75 1020.9
20260830165533 74 280 6.0 9.0 0.00 0.00 0.00 75 1021.0
20260830165031 74 280 7.0 8.0 0.00 0.00 0.00 76 1020.9
20260830164546 74 280 7.0 8.0 0.00 0.00 0.00 75 1020.9
20260830164031 74 280 7.0 8.0 0.00 0.00 0.00 75 1020.8
20260830163533 75 280 5.0 8.0 0.00 0.00 0.00 75 1020.9
20260830163053 74 280 7.0 10.0 0.00 0.00 0.00 74 1021.0
20260830162531 75 279 7.0 10.0 0.00 0.00 0.00 74 1021.0
20260830162033 75 279 7.0 9.0 0.00 0.00 0.00 73 1021.0
20260830161605 75 279 7.0 8.0 0.00 0.00 0.00 73 1021.0
20260830161031 75 278 6.0 9.0 0.00 0.00 0.00 71 1021.0
20260830160535 75 278 6.0 9.0 0.00 0.00 0.00 72 1021.1
20260830160048 75 278 7.0 10.0 0.00 0.00 0.00 72 1021.0
20260830155534 75 278 8.0 10.0 0.00 0.00 0.00 72 1021.2
20260830155031 75 278 7.0 9.0 0.00 0.00 0.00 71 1021.3
20260830154556 75 278 6.0 11.0 0.00 0.00 0.00 71 1021.3
20260830154032 75 278 7.0 11.0 0.00 0.00 0.00 69 1021.4
20260830153532 75 277 8.0 11.0 0.00 0.00 0.00 73 1021.5
20260830153102 75 277 8.0 10.0 0.00 0.00 0.00 70 1021.6
20260830152534 75 276 7.0 10.0 0.00 0.00 0.00 69 1021.5
20260830152031 75 276 7.0 10.0 0.00 0.00 0.00 69 1021.5
20260830151556 75 276 8.0 10.0 0.00 0.00 0.00 69 1021.7
20260830151033 75 276 8.0 10.0 0.00 0.00 0.00 70 1021.8
20260830150531 75 270 7.0 10.0 0.00 0.00 0.00 70 1021.8
20260830150050 75 268 6.0 11.0 0.00 0.00 0.00 68 1021.9
20260830145536 75 269 7.0 11.0 0.00 0.00 0.00 68 1021.9
20260830145031 75 261 6.0 11.0 0.00 0.00 0.00 64 1021.9
20260830144600 76 263 6.0 11.0 0.00 0.00 0.00 61 1022.0
20260830144032 76 257 3.0 10.0 0.00 0.00 0.00 61 1022.0
20260830143532 75 237 5.0 11.0 0.00 0.00 0.00 59 1022.0
20260830143051 75 259 6.0 11.0 0.00 0.00 0.00 62 1022.1
20260830142531 75 254 4.0 11.0 0.00 0.00 0.00 62 1022.2
20260830142033 75 254 5.0 11.0 0.00 0.00 0.00 59 1022.2
20260830141546 75 250 4.0 9.0 0.00 0.00 0.00 61 1022.2
20260830141031 75 250 4.0 10.0 0.00 0.00 0.00 63 1022.4
20260830140530 75 247 4.0 11.0 0.00 0.00 0.00 61 1022.4
20260830140109 75 251 2.0 11.0 0.00 0.00 0.00 62 1022.3
20260830135536 74 259 4.0 13.0 0.00 0.00 0.00 64 1022.4
20260830135031 74 258 4.0 13.0 0.00 0.00 0.00 65 1022.4
20260830134545 73 261 4.0 13.0 0.00 0.00 0.00 66 1022.3
20260830134032 73 274 5.0 10.0 0.00 0.00 0.00 72 1022.5
20260830133533 73 274 5.0 10.0 0.00 0.00 0.00 74 1022.5
20260830133050 73 276 4.0 10.0 0.00 0.00 0.00 74 1022.5
20260830132530 73 282 2.0 8.0 0.00 0.00 0.00 75 1022.5
20260830132033 72 282 3.0 8.0 0.00 0.00 0.00 74 1022.5
20260830131549 72 283 3.0 8.0 0.00 0.00 0.00 76 1022.7
20260830131034 72 282 3.0 7.0 0.00 0.00 0.00 75 1022.6
20260830130531 71 283 2.0 7.0 0.00 0.00 0.00 76 1022.6
20260830130055 71 283 1.0 7.0 0.00 0.00 0.00 76 1022.5
20260830125534 71 284 2.0 7.0 0.00 0.00 0.00 76 1022.7
20260830125031 70 284 1.0 6.0 0.00 0.00 0.00 78 1022.7
20260830124550 70 284 1.0 4.0 0.00 0.00 0.00 77 1022.7
20260830124035 70 0 0.0 7.0 0.00 0.00 0.00 77 1022.8
20260830123534 70 284 1.0 7.0 0.00 0.00 0.00 79 1022.7
20260830123055 69 284 2.0 7.0 0.00 0.00 0.00 79 1022.7
20260830122531 69 0 1.0 4.0 0.00 0.00 0.00 79 1022.8
20260830122032 68 284 1.0 4.0 0.00 0.00 0.00 80 1022.9
20260830121547 68 284 1.0 4.0 0.00 0.00 0.00 81 1022.9
20260830121034 68 284 2.0 6.0 0.00 0.00 0.00 82 1022.8
20260830120533 68 284 1.0 6.0 0.00 0.00 0.00 83 1022.7
20260830120047 67 284 2.0 4.0 0.00 0.00 0.00 84 1022.8
20260830115531 67 284 2.0 4.0 0.00 0.00 0.00 83 1022.7
20260830115031 67 284 1.0 4.0 0.00 0.00 0.00 84 1022.8
20260830114551 67 283 1.0 4.0 0.00 0.00 0.00 84 1022.7
20260830114030 67 0 1.0 4.0 0.00 0.00 0.00 85 1022.7
20260830113531 67 0 1.0 4.0 0.00 0.00 0.00 85 1022.6
20260830113053 66 284 1.0 3.0 0.00 0.00 0.00 86 1022.7
20260830112534 66 284 0.0 3.0 0.00 0.00 0.00 86 1022.8